User: anonymous   Login
Location: Venise Bay
(45.0825°N, 73.1481°W)
Time: 11:24:58
(UTC-05:00)
Language:

ISS - Orbit

View from above orbital plane
View from above orbital plane
View from above satellite
View from above satellite

Ground track
Ground track

The orbit data is extracted from the following two-line orbital elements,

1 25544U 98067A   20054.51946069  .00016717  00000-0  10270-3 0  9020
2 25544  51.6407 195.8349 0005031 305.4605  54.6075 15.49203019 14237
Epoch (UTC): 23 February 2020 12:28:01
Eccentricity: 0.0005031
inclination: 51.6407°
perigee height: 415 km
apogee height: 422 km
right ascension of ascending node: 195.8349°
argument of perigee: 305.4605°
revolutions per day: 15.49203019
mean anomaly at epoch: 54.6075°
orbit number at epoch: 1423

The dashed part of the orbit path shows where the satellite is in the earth's shadow,  

DLR